Home > Weather > Hilo > Past weeks

Flag for USA Past Weather in Hilo, Hawaii, USA — Yesterday and Last 2 Weeks

Now
84 °F

Light rain. Partly sunny.


Feels Like: 88 °F
Forecast: 74 / 86 °F
Wind: 12 mph from Northeast

Location: Hilo International Airport

Current Time: Jul 27, 2016 at 11:18:41 AM

Latest Report: Jul 27, 2016 at 10:53 AM


Visibility: 10 mi

Pressure: 30.03 "Hg

Humidity: 63%

Dew Point: 70 °F

Location of HiloLocation

Past Weather in Hilo — Graph

°F

Hilo Temperature Yesterday

Maximum temperature yesterday: 87 °F (at 12:53 PM)
Minimum temperature yesterday: 73 °F (at 12:53 AM)
Average temperature yesterday: 80 °F

High & Low Weather Summary for the Past Weeks

 TemperatureHumidityPressure
High87 °F (Jul 25, 11:53 AM)100% (Jul 15, 2:05 AM)30.09 "Hg (Jul 15, 2:05 AM)
Low70 °F (Jul 13, 3:53 AM)59% (Jul 20, 9:53 AM)29.78 "Hg (Jul 23, 2:04 PM)
Average78 °F82%29.97 "Hg
* Reported Jul 12 9:53 AM — Jul 27 9:53 AM, Hilo, Weather by CustomWeather, © 2016

Note: Actual official high and low records may vary slightly from our data, if they occured in-between our weather recording intervals... More about our weather records

Advertising

Hilo Weather History for the Previous 24 Hours

Scroll right to see more
 ConditionsComfort  
Time TempWeatherWind HumidityBarometerVisibility
9:53 AM
Wed, Jul 27
82 °FLight rain. Broken clouds.6 mph72%30.04 "Hg10 mi
8:53 AM82 °FBroken clouds.7 mph72%30.03 "Hg10 mi
7:53 AM80 °FBroken clouds.5 mph74%30.03 "Hg10 mi
6:53 AM77 °FBroken clouds.3 mph79%30.03 "Hg10 mi
5:53 AM76 °FPartly cloudy.3 mph80%30.01 "Hg10 mi
4:53 AM76 °FPassing clouds.3 mph80%30.00 "Hg10 mi
3:53 AM76 °FPassing clouds.6 mph82%29.99 "Hg10 mi
2:53 AM77 °FPassing clouds.5 mph79%29.99 "Hg10 mi
1:53 AM79 °FPassing clouds.3 mph74%30.00 "Hg10 mi
12:53 AM77 °FPassing clouds.6 mph79%30.02 "Hg10 mi
11:53 PM
Tue, Jul 26
77 °FPassing clouds.3 mph79%30.03 "Hg10 mi
10:53 PM79 °FPassing clouds.3 mph77%30.04 "Hg10 mi
9:53 PM79 °FPassing clouds.5 mph79%30.04 "Hg10 mi
8:53 PM80 °FPassing clouds.5 mph76%30.03 "Hg10 mi
7:53 PM81 °FPassing clouds.No wind74%30.02 "Hg10 mi
6:53 PM81 °FOvercast.3 mph74%30.01 "Hg10 mi
5:53 PM81 °FScattered clouds.8 mph74%29.99 "Hg10 mi
4:53 PM83 °FScattered clouds.10 mph70%29.98 "Hg10 mi
3:53 PM83 °FScattered clouds.13 mph70%29.97 "Hg10 mi
2:53 PM86 °FPassing clouds.10 mph67%29.97 "Hg10 mi
1:53 PM87 °FPassing clouds.13 mph61%29.98 "Hg10 mi
12:53 PM87 °FPassing clouds.10 mph61%29.99 "Hg10 mi
11:53 AM86 °FPassing clouds.10 mph61%30.01 "Hg10 mi
Weather by CustomWeather, © 2016

See weather overviewHow to use our weather pages